GW6490 Weather Reports


time (UTC)temp
F
wind
direction
speed
knots
gust
knots
rain 1hr
in
rain 24hr
in
rain mn
in
humidity
%
barometer
mb
20260504190947 66 94 1.7 1.7 0.00 0.00 0.00 24 1009.7
20260504190443 66 303 2.6 2.6 0.00 0.00 0.00 23 1009.9
20260504185940 68 205 1.7 1.7 0.00 0.00 0.00 23 1010.0
20260504185437 66 96 0.0 0.0 0.00 0.00 0.00 24 1010.1
20260504184933 66 276 1.7 1.7 0.00 0.00 0.00 24 1010.0
20260504184429 66 106 0.0 0.0 0.00 0.00 0.00 24 1009.9
20260504183925 66 147 0.9 0.9 0.00 0.00 0.00 23 1010.1
20260504183423 66 40 0.9 1.7 0.00 0.00 0.00 24 1010.3
20260504182921 65 95 1.7 2.6 0.00 0.00 0.00 24 1010.5
20260504182417 65 88 0.0 0.0 0.00 0.00 0.00 25 1010.1
20260504181914 66 90 0.0 0.0 0.00 0.00 0.00 24 1010.4
20260504181411 66 69 0.9 0.9 0.00 0.00 0.00 24 1010.4
20260504180910 65 95 3.5 3.5 0.00 0.00 0.00 25 1010.1
20260504180408 66 99 2.6 3.5 0.00 0.00 0.00 24 1010.4
20260504175906 66 93 0.9 1.7 0.00 0.00 0.00 23 1010.4
20260504175403 66 103 0.0 0.9 0.00 0.00 0.00 24 1010.7
20260504174900 65 188 0.9 1.7 0.00 0.00 0.00 26 1010.7
20260504174358 63 100 0.9 0.9 0.00 0.00 0.00 25 1010.6
20260504173855 64 212 2.6 2.6 0.00 0.00 0.00 25 1010.7
20260504173351 62 99 0.9 0.9 0.00 0.00 0.00 26 1010.7
20260504172849 62 85 0.0 0.0 0.00 0.00 0.00 28 1010.7
20260504172345 62 93 0.0 0.9 0.00 0.00 0.00 25 1011.1
20260504171841 60 101 0.0 0.9 0.00 0.00 0.00 29 1011.1
20260504171338 62 202 1.7 2.6 0.00 0.00 0.00 28 1011.1
20260504170835 61 129 0.0 0.0 0.00 0.00 0.00 29 1011.0
20260504170332 59 89 0.9 0.9 0.00 0.00 0.00 30 1011.2
20260504160251 54 99 0.0 0.0 0.00 0.00 0.00 35 1011.9
20260504150716 44 193 0.9 0.9 0.00 0.00 0.00 47 1012.3
20260504150213 44 172 0.0 0.9 0.00 0.00 0.00 48 1012.4
20260504141142 39 125 0.0 0.0 0.00 0.00 0.00 57 1012.9
20260504140639 40 127 0.9 0.9 0.00 0.00 0.00 56 1012.8
20260504140134 40 95 0.0 0.0 0.00 0.00 0.00 54 1013.2
20260504130602 31 117 0.0 0.0 0.00 0.00 0.00 73 1012.7
20260504110450 33 127 0.0 0.0 0.00 0.00 0.00 67 1012.6
20260504100413 33 121 0.0 0.0 0.00 0.00 0.00 67 1012.6
20260504081806 38 141 0.0 0.9 0.00 0.00 0.00 55 1012.4
20260504081302 38 96 0.0 0.0 0.00 0.00 0.00 53 1012.6
20260504080759 39 90 0.0 0.0 0.00 0.00 0.00 52 1012.3
20260504080255 39 151 0.0 0.9 0.00 0.00 0.00 52 1012.4
20260504070223 41 94 0.0 0.0 0.00 0.00 0.00 46 1012.8
20260504060143 45 81 0.0 0.0 0.00 0.00 0.00 40 1012.8
20260504050611 49 86 0.0 0.0 0.00 0.00 0.00 32 1012.9
20260504050108 49 94 0.9 0.9 0.00 0.00 0.00 31 1013.0
20260504045605 49 107 0.0 0.0 0.00 0.00 0.00 31 1012.8
20260504045100 49 92 0.0 0.0 0.00 0.00 0.00 32 1012.7
20260504044558 49 256 0.9 1.7 0.00 0.00 0.00 31 1012.8
20260504044055 49 75 2.6 2.6 0.00 0.00 0.00 31 1012.9
20260504043552 49 45 0.9 1.7 0.00 0.00 0.00 32 1012.9
20260504043049 49 50 1.7 2.6 0.00 0.00 0.00 32 1012.9
20260504042546 50 107 1.7 2.6 0.00 0.00 0.00 32 1012.9
20260504042043 50 75 0.0 0.9 0.00 0.00 0.00 31 1012.8
20260504041539 50 20 2.6 5.2 0.00 0.00 0.00 31 1012.9
20260504041035 50 142 1.7 2.6 0.00 0.00 0.00 32 1012.7
20260504040533 50 75 5.2 7.0 0.00 0.00 0.00 32 1012.8
20260504040029 50 94 1.7 2.6 0.00 0.00 0.00 31 1013.2
20260504035526 50 28 0.0 0.9 0.00 0.00 0.00 32 1013.0
20260504035022 50 122 2.6 3.5 0.00 0.00 0.00 31 1012.8
20260504034520 51 78 3.5 6.1 0.00 0.00 0.00 32 1012.7
20260504034017 51 89 3.5 5.2 0.00 0.00 0.00 31 1012.7
20260504033515 51 114 0.9 1.7 0.00 0.00 0.00 31 1012.8
20260504033012 52 114 0.9 1.7 0.00 0.00 0.00 31 1012.4
20260504032509 52 102 0.9 0.9 0.00 0.00 0.00 31 1012.6
20260504032005 52 101 3.5 3.5 0.00 0.00 0.00 32 1012.7
20260504031502 53 54 1.7 2.6 0.00 0.00 0.00 31 1012.7
20260504030959 53 124 0.0 0.0 0.00 0.00 0.00 30 1012.7
20260504030456 53 107 1.7 3.5 0.00 0.00 0.00 30 1012.6
20260504025952 53 109 0.0 0.9 0.00 0.00 0.00 31 1012.6
20260504025449 53 98 0.9 2.6 0.00 0.00 0.00 30 1012.6
20260504024946 53 86 1.7 1.7 0.00 0.00 0.00 30 1012.3
20260504024443 54 112 0.0 0.0 0.00 0.00 0.00 29 1012.4
20260504023940 55 85 0.9 0.9 0.00 0.00 0.00 28 1012.4
20260504023437 55 88 0.0 0.0 0.00 0.00 0.00 29 1012.2
20260504022932 56 93 0.0 0.0 0.00 0.00 0.00 28 1012.3
20260504022429 56 82 0.9 1.7 0.00 0.00 0.00 28 1012.4
20260504021925 57 102 0.9 1.7 0.00 0.00 0.00 27 1012.2
20260504021423 59 93 0.9 0.9 0.00 0.00 0.00 26 1012.1
20260504020920 61 101 0.0 0.0 0.00 0.00 0.00 26 1012.2
20260504020416 63 96 0.9 1.7 0.00 0.00 0.00 23 1012.1
20260504015913 64 120 0.0 0.0 0.00 0.00 0.00 18 1012.1
20260504015409 64 99 0.0 0.9 0.00 0.00 0.00 19 1012.1
20260504014906 65 129 0.0 0.0 0.00 0.00 0.00 19 1012.2
20260504014402 66 203 0.9 0.9 0.00 0.00 0.00 18 1012.2
20260504013859 67 265 0.9 0.9 0.00 0.00 0.00 17 1012.1
20260504013357 67 133 0.0 0.0 0.00 0.00 0.00 18 1012.2
20260504012853 67 184 0.9 0.9 0.00 0.00 0.00 17 1012.2
20260504012351 67 122 0.9 0.9 0.00 0.00 0.00 17 1012.3
20260504011848 68 215 0.9 1.7 0.00 0.00 0.00 16 1012.3
20260504011344 68 203 0.9 0.9 0.00 0.00 0.00 16 1012.4
20260504010841 68 178 0.9 0.9 0.00 0.00 0.00 16 1012.6
20260504010336 70 214 1.7 2.6 0.00 0.00 0.00 15 1012.6
20260504005833 69 261 0.9 0.9 0.00 0.00 0.00 17 1012.4
20260504005330 69 216 2.6 2.6 0.00 0.00 0.00 17 1012.3
20260504004827 69 204 1.7 1.7 0.00 0.00 0.00 17 1012.2
20260504004325 69 84 0.9 0.9 0.00 0.00 0.00 16 1012.7
20260504003821 69 267 6.1 7.8 0.00 0.00 0.00 15 1012.3
20260504003318 69 144 0.0 0.9 0.00 0.00 0.00 15 1012.6
20260504002815 69 283 3.5 5.2 0.00 0.00 0.00 15 1012.7
20260504002312 69 257 2.6 2.6 0.00 0.00 0.00 16 1012.7
20260504001809 70 258 1.7 1.7 0.00 0.00 0.00 15 1012.7
20260504001306 70 281 1.7 2.6 0.00 0.00 0.00 15 1012.7
20260504000803 71 216 2.6 2.6 0.00 0.00 0.00 15 1012.6
20260504000300 70 276 2.6 2.6 0.00 0.00 0.00 15 1012.9
20260503235758 70 233 5.2 6.1 0.00 0.00 0.00 15 1012.7
20260503235255 70 249 2.6 2.6 0.00 0.00 0.00 15 1012.8
20260503234753 72 184 2.6 2.6 0.00 0.00 0.00 15 1012.8
20260503234251 72 242 0.9 1.7 0.00 0.00 0.00 17 1012.7
20260503233748 71 206 0.9 1.7 0.00 0.00 0.00 17 1012.9
20260503233243 71 216 2.6 2.6 0.00 0.00 0.00 18 1012.9
20260503232741 71 181 1.7 1.7 0.00 0.00 0.00 15 1012.7
20260503232238 71 266 5.2 7.0 0.00 0.00 0.00 15 1012.9
20260503231736 69 146 0.0 0.9 0.00 0.00 0.00 16 1012.8
20260503231232 68 267 1.7 1.7 0.00 0.00 0.00 16 1012.8
20260503230728 67 140 0.9 0.9 0.00 0.00 0.00 17 1012.9
20260503230226 67 90 0.0 0.0 0.00 0.00 0.00 17 1013.3
20260503225723 66 93 0.0 0.9 0.00 0.00 0.00 19 1012.9
20260503225223 66 234 2.6 2.6 0.00 0.00 0.00 18 1013.2
20260503224720 67 230 1.7 1.7 0.00 0.00 0.00 21 1013.3
20260503224218 66 97 0.0 0.9 0.00 0.00 0.00 19 1013.4
20260503223716 67 175 0.9 0.9 0.00 0.00 0.00 20 1013.3
20260503223213 67 264 1.7 1.7 0.00 0.00 0.00 18 1013.5
20260503222709 68 96 1.7 1.7 0.00 0.00 0.00 17 1013.2
20260503222207 68 121 0.0 0.0 0.00 0.00 0.00 17 1013.4
20260503221706 68 173 0.0 0.0 0.00 0.00 0.00 17 1013.4
20260503221203 68 84 0.0 0.0 0.00 0.00 0.00 17 1013.4
20260503220659 69 78 0.9 0.9 0.00 0.00 0.00 18 1013.5
20260503220156 69 160 0.9 0.9 0.00 0.00 0.00 18 1013.3
20260503215653 70 191 1.7 1.7 0.00 0.00 0.00 16 1013.5
20260503215149 69 102 0.9 0.9 0.00 0.00 0.00 15 1013.6
20260503214648 69 123 1.7 1.7 0.00 0.00 0.00 16 1013.8
20260503214144 69 80 0.0 0.9 0.00 0.00 0.00 15 1013.8
20260503213643 69 69 0.9 0.9 0.00 0.00 0.00 15 1013.5
20260503213139 68 86 2.6 2.6 0.00 0.00 0.00 15 1013.8
20260503212637 67 99 0.9 0.9 0.00 0.00 0.00 16 1014.0
20260503212134 69 120 0.9 1.7 0.00 0.00 0.00 14 1014.2
20260503211632 69 248 3.5 5.2 0.00 0.00 0.00 16 1014.0
20260503211127 72 201 1.7 1.7 0.00 0.00 0.00 15 1014.1
20260503210624 70 108 0.9 0.9 0.00 0.00 0.00 17 1014.1
20260503210120 69 230 0.9 0.9 0.00 0.00 0.00 17 1014.1
20260503205616 69 158 0.9 1.7 0.00 0.00 0.00 17 1014.4
20260503205113 68 189 0.9 1.7 0.00 0.00 0.00 18 1014.6
20260503204609 69 99 0.9 0.9 0.00 0.00 0.00 17 1014.6
20260503204107 68 110 0.9 0.9 0.00 0.00 0.00 17 1014.6
20260503203604 69 95 1.7 2.6 0.00 0.00 0.00 18 1014.8
20260503203101 69 119 0.9 0.9 0.00 0.00 0.00 17 1014.5
20260503202559 69 229 1.7 2.6 0.00 0.00 0.00 17 1014.6
20260503202056 71 228 4.3 6.1 0.00 0.00 0.00 16 1014.6
20260503201554 71 124 0.0 0.9 0.00 0.00 0.00 17 1014.8
20260503201051 72 189 2.6 5.2 0.00 0.00 0.00 16 1014.7
20260503200547 72 250 0.9 0.9 0.00 0.00 0.00 14 1015.0
20260503200044 69 111 0.0 0.9 0.00 0.00 0.00 17 1014.7
20260503195541 67 300 0.9 0.9 0.00 0.00 0.00 18 1015.1
20260503195038 67 259 3.5 5.2 0.00 0.00 0.00 18 1015.1
20260503194535 69 270 4.3 6.1 0.00 0.00 0.00 17 1015.1
20260503194035 69 266 2.6 3.5 0.00 0.00 0.00 16 1015.0
20260503193532 69 141 0.9 0.9 0.00 0.00 0.00 16 1015.0
20260503193027 71 111 0.9 0.9 0.00 0.00 0.00 16 1015.3
20260503192523 70 118 1.7 2.6 0.00 0.00 0.00 19 1015.3
20260503192020 69 97 0.0 0.9 0.00 0.00 0.00 17 1015.5
20260503191517 67 75 1.7 1.7 0.00 0.00 0.00 18 1015.6